Location: Augirein
(42.9320°N, 0.9181°E)
Time: 00:07:21
(UTC+00:00)

X-37B - Visible Passes

Search period start: 22 September 2021 00:00
Search period end: 02 October 2021 00:00
Orbit: 381 x 393 km, 45.0° (Epoch: 29 August)

Date Brightness Start Highest point End Pass type
(mag) Time Alt. Az. Time Alt. Az. Time Alt. Az.
22 Sep 1.1 04:55:05 12° SW 04:57:53 54° SSE 05:00:59 10° ENE visible
23 Sep 1.8 03:59:30 32° SSE 03:59:36 32° SSE 04:02:29 10° E visible
24 Sep 0.5 04:36:10 27° WSW 04:37:42 85° SSE 04:40:53 10° ENE visible
25 Sep 2.2 03:40:29 33° E 03:40:29 33° E 03:42:27 10° ENE visible
25 Sep 0.9 05:12:54 10° W 05:16:01 58° N 05:19:09 10° ENE visible
26 Sep 0.6 04:17:04 55° WNW 04:17:35 70° NNW 04:20:45 10° ENE visible
27 Sep 3.4 03:21:20 19° ENE 03:21:20 19° ENE 03:22:21 10° ENE visible
27 Sep 1.0 04:53:37 16° WNW 04:55:57 55° N 04:59:04 10° E visible
28 Sep 1.2 03:57:54 52° NNE 03:57:54 52° NNE 04:00:37 10° ENE visible
29 Sep 4.2 03:02:12 10° ENE 03:02:12 10° ENE 03:02:13 10° ENE visible
29 Sep 0.9 04:34:29 29° WNW 04:35:52 60° N 04:39:00 10° E visible
30 Sep 2.7 03:38:49 28° ENE 03:38:49 28° ENE 03:40:32 10° E visible
30 Sep 0.5 05:11:07 11° WNW 05:14:10 78° SSW 05:17:20 10° ESE visible
01 Oct 0.5 04:15:30 68° NW 04:15:46 75° NNE 04:18:56 10° E visible
